RH
33 35 39 29 26 23 21 23 26 26 30 33 38 32 26 27 28 29 37 54 64 70 68 68 62 62 67 74 76 74 58 54 56 53 50 49 50 49 51 52 55 46 47 46
36 40 28 23 23 27 28 27 26 30 34 36 36 36 28 28 30 28 30 42 58 65 70 69 65 61 69 76 76 72 60 58 57 53 50 46 48 49 51 48 55 50 49 50
41 27 24 25 26 28 30 33 30 32 35 33 34 36 32 27 27 28 29 29 41 55 70 72 66 61 72 79 78 73 64 61 60 55 52 50 49 51 53 52 50 54 50 56
31 27 26 30 31 30 38 26 26 40 49 73 35 72 30 32 34 34 34 32 32 44 57 65 64 66 72 80 80 76 68 64 61 59 55 49 48 49 49 47 47 48 51 49
42 35 36 35 31 28 35 28 32 37 50 56 42 80 60 31 38 37 36 37 38 33 38 60 62 67 70 77 82 79 70 67 64 62 56 50 50 47 48 52 53 46 51 47
39 34 37 38 43 38 36 38 38 39 63 85 63 59 52 29 28 33 42 44 45 44 42 39 57 62 71 77 83 81 74 71 68 65 62 57 53 51 50 53 53 53 49 50
42 40 44 42 51 39 41 59 90 94 89 86 48 62 42 32 35 30 46 50 54 54 47 42 66 66 70 86 87 85 79 75 71 68 63 62 58 56 52 52 52 52 53 51
66 66 53 45 52 62 62 70 86 80 87 63 40 66 51 44 47 49 48 55 59 58 57 63 70 67 72 83 88 87 83 78 74 71 66 64 63 61 58 56 52 52 51 50
57 51 52 56 47 56 56 65 44 68 50 76 57 40 45 47 53 55 56 59 67 67 66 68 68 70 72 78 81 82 82 80 75 73 69 67 65 63 60 59 57 54 53 52
39 63 49 62 52 53 61 52 58 88 80 67 40 42 40 60 58 58 60 67 69 69 72 73 70 71 69 75 76 76 79 78 74 72 70 69 69 66 64 63 62 60 58 56
41 61 65 61 75 77 67 79 69 72 72 84 69 57 50 54 51 58 58 62 68 71 73 72 67 69 73 73 72 72 72 74 72 69 71 72 72 71 69 68 68 64 64 62
49 71 86 63 82 84 76 76 75 78 75 85 88 75 64 81 62 66 62 64 67 68 69 70 68 68 70 71 71 71 71 72 72 73 72 72 74 73 72 72 72 70 69 68
64 75 78 74 82 75 88 84 94 82 88 81 74 74 72 77 81 84 77 70 71 71 71 71 67 68 71 74 77 79 79 78 75 73 75 75 77 77 76 77 77 75 74 74
47 64 74 70 66 78 88 94 86 74 90 76 70 87 84 82 87 83 78 80 79 80 78 76 78 77 82 88 90 89 85 82 81 81 81 82 82 83 84 84 85 84 83 81
60 72 42 61 64 76 87 89 85 69 58 60 67 63 70 77 82 86 87 91 88 94 92 90 88 88 90 91 94 90 86 84 84 82 82 84 81 80 80 81 81 82 84 85
61 84 74 74 61 76 84 88 89 77 80 81 80 71 99 90 92 98 93 94 96 97 98 96 93 95 97 96 97 92 81 77 76 79 80 83 81 80 77 75 73 71 70 71
80 82 83 79 44 58 76 74 90 88 84 67 77 59 94 97 91 95 95 94 96 97 97 94 94 94 94 95 96 96 95 83 67 72 76 65 57 55 61 67 72 76 77 76
83 86 90 90 71 92 66 63 73 75 80 85 81 90 88 90 93 91 89 92 96 96 94 92 94 100 100 100 98 100 98 100 100 96 92 92 88 77 77 70 62 64 70 79
74 98 97 96 96 59 34 47 56 74 61 80 79 98 98 98 92 99 91 90 92 91 96 100 99 94 100 100 100 99 99 99 98 98 95 94 96 93 91 87 90 89 90 93
46 48 94 86 84 69 38 41 48 65 47 76 85 97 98 91 98 98 98 97 98 100 97 95 98 100 94 91 100 95 98 96 94 96 97 98 99 98 98 97 94 98 96 98
86 76 73 75 79 58 64 56 56 47 60 78 89 91 95 98 99 97 94 96 98 96 94 93 86 87 87 88 98 94 92 94 92 87 84 86 94 99 99 98 98 98 98 98
86 85 83 70 70 58 74 58 58 81 70 85 91 92 99 96 94 94 92 95 97 99 97 89 86 88 83 80 80 88 86 87 82 80 89 87 91 94 97 99 98 99 98 97
75 84 76 56 67 85 80 84 70 71 86 94 94 92 90 91 88 86 94 96 98 96 96 92 86 87 86 79 76 76 86 77 74 79 77 81 89 89 93 93 94 97 98 96
57 55 72 66 86 95 85 83 84 81 88 88 85 85 83 91 85 89 90 95 99 96 95 90 85 86 90 86 79 77 74 69 69 73 79 84 86 92 88 91 91 90 90 90
86 69 61 91 93 93 91 90 85 82 85 87 84 82 82 83 85 89 93 97 97 96 92 87 88 88 91 86 80 75 69 64 63 78 85 85 91 87 85 87 88 88 85 88
93 97 98 99 93 96 96 95 83 80 82 86 89 90 83 85 90 91 97 99 96 96 92 88 89 84 85 81 77 75 72 69 66 66 74 91 89 86 87 86 86 85 88 87
Wind_Speed
7 5 11 13 12 7 3 4 5 4 5 5 8 7 10 10 7 8 10 12 10 10 14 21 23 25 24 24 22 22 22 20 18 17 16 13 13 13 11 9 12 11 14 12
4 12 11 10 10 9 8 6 4 3 4 2 5 12 9 10 8 8 9 11 14 13 15 19 18 26 26 27 25 24 23 22 18 16 14 14 13 11 10 11 12 11 13 13
8 1 12 8 5 7 8 8 5 3 5 3 3 5 6 7 6 5 2 2 11 15 17 15 18 26 26 27 27 26 25 23 18 18 18 18 14 15 11 12 12 13 11 14
9 9 5 6 7 7 5 6 6 8 5 4 5 4 7 9 8 7 6 5 4 8 14 15 19 24 25 25 28 26 26 24 21 20 18 18 15 14 11 13 11 12 10 13
6 4 6 4 3 8 2 2 6 4 3 4 3 2 6 11 6 8 9 8 6 3 6 15 20 23 27 26 29 27 27 25 23 20 17 15 13 10 13 13 11 12 11 10
3 2 2 2 4 3 8 7 7 4 4 2 7 7 5 6 6 9 7 8 7 4 5 6 23 26 27 29 29 28 29 26 23 21 17 16 13 14 15 14 12 11 11 10
3 3 2 1 6 2 1 5 2 1 1 6 1 5 10 3 3 8 13 9 7 6 7 7 10 21 23 28 29 29 29 27 24 22 19 16 14 12 13 14 14 13 11 11
7 4 9 6 4 7 7 5 5 8 5 4 2 7 6 5 7 8 9 8 7 7 4 7 9 18 21 23 25 25 26 27 24 23 21 18 15 13 12 11 13 11 11 9
6 4 3 5 2 3 5 5 1 5 1 3 5 4 2 6 6 6 7 7 7 7 6 7 10 14 19 19 21 23 25 26 24 23 20 18 16 14 13 12 11 11 10 9
2 4 1 1 1 1 2 1 3 2 4 5 5 5 5 9 11 9 9 8 7 7 7 7 10 15 18 19 21 22 23 24 22 20 19 18 16 15 13 12 13 13 11 12
3 4 2 4 7 8 3 1 2 2 3 5 2 6 0 8 16 16 12 10 8 8 7 7 11 16 19 19 19 20 20 22 20 19 17 16 14 14 14 13 11 11 11 10
2 4 4 4 1 1 1 4 5 4 5 3 3 6 3 4 9 11 12 12 9 8 8 7 13 17 19 19 19 19 19 19 17 16 15 14 13 12 11 11 10 10 10 11
6 3 3 2 2 3 3 5 3 2 1 5 5 5 4 4 8 7 13 11 10 9 9 8 12 14 18 20 21 21 19 17 15 15 15 13 11 10 9 8 9 10 11 10
2 2 5 6 4 5 5 6 6 4 2 4 8 2 4 6 10 12 12 11 10 8 8 7 8 14 17 18 18 19 18 17 16 17 17 16 13 11 11 9 8 7 7 7
2 5 2 4 4 3 0 5 12 14 14 8 5 10 7 16 14 13 10 10 11 9 8 7 9 12 16 17 17 16 16 16 16 17 15 13 11 9 8 7 6 6 7 7
1 2 2 2 4 4 2 4 9 11 4 6 2 5 3 5 11 10 14 15 13 11 9 9 9 13 14 15 16 15 14 15 14 14 12 9 8 7 5 4 3 3 4 5
4 4 2 2 2 1 6 9 11 6 6 11 12 11 7 6 15 18 17 16 14 12 10 10 9 13 13 13 13 13 12 12 13 14 12 10 9 7 4 1 2 3 5 6
3 4 2 3 1 5 5 1 1 9 4 7 1 1 3 5 6 9 9 14 13 13 12 10 13 14 13 11 11 10 9 10 10 9 11 8 6 6 5 5 5 4 5 7
3 2 3 4 3 6 4 4 6 7 9 8 8 7 8 12 9 5 5 7 12 13 13 17 15 14 14 12 9 11 11 9 9 8 6 5 3 4 3 5 6 6 7 8
3 3 3 3 4 6 2 2 1 1 4 7 7 12 15 10 6 5 10 15 13 18 20 18 15 15 11 10 10 10 11 10 9 5 3 3 4 4 5 5 6 7 7 9
3 1 6 3 3 5 3 2 1 5 5 5 3 9 11 3 2 15 13 13 16 19 18 17 16 16 13 11 13 14 12 9 3 2 2 2 3 4 5 6 6 7 8 9
6 6 4 3 2 7 6 2 2 2 4 3 5 5 11 12 12 12 13 12 15 17 17 16 19 18 15 13 12 13 11 5 3 4 5 4 4 3 5 6 7 8 9 10
1 3 4 2 2 4 5 5 3 3 5 6 8 10 13 13 13 12 10 10 13 17 17 16 19 18 16 14 12 11 8 7 7 7 7 7 6 6 6 7 8 8 8 10
1 1 2 4 4 6 6 8 11 10 8 7 10 10 11 14 13 12 11 9 12 16 16 15 16 16 16 14 13 13 10 9 9 10 10 9 8 9 6 8 8 10 10 12
3 4 2 4 4 4 8 8 8 10 10 11 10 10 12 13 11 11 9 11 15 15 15 14 15 15 14 11 12 12 11 10 10 9 9 8 9 10 10 8 9 11 12 13
5 5 3 2 4 1 6 8 9 10 10 10 11 14 15 15 11 15 12 14 16 15 12 13 12 12 11 11 11 10 9 9 9 9 9 11 11 11 12 13 15 12 12 14
Wind_Direction
206 185 207 206 212 240 272 311 258 114 150 143 225 251 214 176 197 224 172 164 175 175 176 210 172 173 175 173 172 167 164 163 166 156 149 143 140 139 138 146 135 143 135 134
152 230 215 219 216 216 256 244 252 75 131 156 248 237 244 167 187 209 173 166 173 171 174 195 197 174 171 170 172 171 169 168 168 159 154 150 148 140 153 145 144 146 150 141
194 218 205 229 185 222 216 198 216 165 139 254 320 279 226 189 149 116 34 45 169 168 168 180 195 174 169 168 173 174 171 172 164 160 160 151 153 153 153 157 158 153 164 150
226 239 193 164 212 173 227 212 207 140 127 222 165 265 209 181 181 165 194 187 222 160 164 172 180 173 172 171 175 175 173 172 168 177 170 169 164 160 169 166 164 162 171 168
215 136 157 182 173 176 215 11 153 149 173 55 198 77 258 135 187 192 186 182 179 210 177 168 176 176 172 173 175 176 173 173 174 178 171 161 162 156 157 159 170 168 170 176
72 350 26 84 59 341 139 88 63 52 102 303 200 170 243 189 194 173 150 150 156 214 262 198 171 176 170 171 174 176 171 174 181 175 170 167 158 156 158 166 169 172 176 181
116 187 95 138 80 33 110 129 85 72 355 231 259 195 233 151 20 168 147 141 160 198 205 206 158 161 163 155 167 173 170 173 183 178 173 170 168 171 170 174 175 177 181 190
166 254 165 186 183 173 198 189 169 185 201 212 102 228 244 88 80 67 108 131 151 169 140 134 128 147 145 149 162 168 169 173 182 179 177 174 170 172 172 178 177 185 193 201
160 193 49 26 36 102 193 207 168 106 299 64 203 253 196 140 132 130 132 137 146 141 140 130 128 137 142 161 172 174 175 176 180 180 177 176 175 171 171 173 175 182 183 191
290 108 27 107 315 85 179 262 96 9 174 232 236 222 218 200 181 170 163 148 137 124 114 122 131 142 163 169 174 172 173 173 175 176 177 177 180 177 174 183 186 185 190 198
160 107 132 143 208 173 162 214 245 136 175 184 197 253 69 208 178 170 165 148 139 127 116 99 95 119 131 142 145 150 157 159 166 167 170 175 180 182 182 186 191 195 192 206
156 114 158 191 85 338 68 186 173 147 233 221 149 267 21 329 158 153 151 145 136 129 122 114 114 114 116 118 120 121 130 139 150 159 165 169 175 176 182 187 189 194 202 206
198 200 119 283 22 12 206 197 157 141 95 204 152 259 29 38 115 132 136 138 133 130 128 127 120 116 114 111 107 107 113 117 131 141 149 149 157 167 172 181 189 194 200 203
104 234 183 194 158 123 186 182 173 147 155 179 219 212 235 195 155 150 146 140 136 138 137 130 114 101 97 104 112 111 110 114 119 124 126 126 127 136 147 160 171 183 196 205
212 198 221 89 79 74 118 170 179 201 212 193 237 205 205 195 183 165 140 136 142 126 112 104 106 103 101 107 115 115 117 119 125 124 128 125 133 138 142 148 162 180 192 198
181 220 105 169 100 77 279 189 194 224 262 277 157 281 185 132 122 152 154 152 153 143 123 111 106 105 109 115 117 116 112 113 121 119 116 122 126 129 133 145 171 202 220 227
176 152 108 255 38 263 299 197 189 186 206 207 218 227 147 164 169 176 165 162 158 149 139 128 119 113 116 111 110 105 106 109 110 106 97 90 87 87 84 57 288 283 277 267
167 121 99 141 89 256 264 95 164 222 216 203 31 128 162 142 104 145 161 156 153 146 141 137 131 116 107 113 114 111 104 96 93 91 90 73 57 54 36 13 3 343 313 294
56 111 153 167 198 300 283 217 168 169 263 200 189 128 113 111 93 41 130 118 130 133 115 111 123 122 110 103 101 109 110 102 90 78 71 46 18 9 2 350 346 319 306 304
166 226 155 162 193 218 253 116 70 72 298 330 140 151 148 148 162 164 112 105 90 94 115 121 121 120 120 109 116 113 108 103 89 71 43 358 337 328 325 322 314 307 298 292
142 188 210 199 240 290 30 119 183 114 252 327 66 145 158 132 42 124 110 93 95 110 116 120 116 102 93 100 114 115 121 95 70 20 353 7 0 318 302 300 294 292 292 288
164 158 188 174 137 265 4 66 181 342 5 53 84 95 100 106 99 98 100 101 102 103 110 111 105 91 87 95 113 108 93 75 61 55 52 34 19 359 322 313 309 301 295 291
258 174 173 152 155 57 16 62 336 332 62 50 89 103 116 114 113 108 101 96 98 106 103 107 102 94 85 84 92 96 70 51 46 47 33 33 18 19 353 330 315 309 308 299
156 351 67 113 65 76 61 50 45 46 51 75 101 110 117 117 115 114 111 103 99 101 97 107 105 92 84 78 73 67 56 46 41 36 30 23 22 4 353 341 330 318 311 307
350 335 359 84 68 71 61 57 61 52 53 65 73 98 101 108 106 109 107 103 107 102 99 100 95 87 78 76 70 60 51 42 41 42 28 23 11 355 350 342 332 318 309 302
355 6 11 62 330 309 54 49 73 71 62 53 73 70 69 93 101 102 97 104 111 103 102 94 88 83 75 70 64 56 46 39 35 28 16 8 352 350 346 341 331 323 312 307